Flag for Canada Weather past 2 weeks in Norman Wells, Northwest Territories, Canada

Now
48 °F

Light rain. Fog.


Feels Like: 42 °F
Forecast: 43 / 49 °F
Wind: 17 mph from West

Location: Norman Wells

Current Time: Jul 30, 2014 at 5:47:33 AM

Latest Report: Jul 30, 2014 at 5:00 AM


Visibility: 5 mi

Pressure: 30.15 "Hg

Humidity: 94%

Dew point: 46 °F

Location of Norman WellsLocation

Historic Weather in Norman Wells — Graph

°F

Norman Wells temperature yesterday

Maximum temperature yesterday: 61 °F (at 1:00 AM)
Minimum temperature yesterday: 52 °F (at 11:00 PM)
Average temperature yesterday: 56 °F

Past Weeks' High & Low Weather Summary

 TemperatureHumidityPressure
High84 °F (Jul 22, 6:00 PM)100% (Jul 17, 4:00 AM)30.14 "Hg (Jul 17, 4:00 AM)
Low48 °F (Jul 25, 5:00 AM)33% (Jul 22, 7:00 PM)29.47 "Hg (Jul 20, 4:00 AM)
Average63 °F75%29.82 "Hg
* Reported Jul 15 4:00 AM — Jul 30 4:00 AM, Norman Wells, Weather by CustomWeather, © 2014

Note: Actual official high and low records may vary slightly from our data, if they occured in-between our weather recording intervals... More about our weather records

Advertising

Norman Wells weather history for previous 24 hours

 ConditionsComfort  
Time TempWeatherWind HumidityBarometerVisibility
4:00 AM
Jul 30
48 °FLight rain. Fog.20 mph94%30.14 "Hg5 mi
3:00 AM50 °FLight rain. Fog.20 mph94%30.14 "Hg3 mi
2:00 AM50 °FLight rain. Fog.22 mph94%30.12 "Hg3 mi
1:00 AM50 °FLight rain. Fog.20 mph100%30.11 "Hg4 mi
12:00 AM52 °FLight rain. Fog.20 mph94%30.11 "Hg4 mi
11:00 PM
Jul 29
52 °FLight rain. Fog.17 mph94%30.10 "Hg4 mi
10:00 PM54 °FLight rain. Fog.17 mph94%30.10 "Hg6 mi
9:00 PM54 °FLight rain. Fog.17 mph94%30.09 "Hg6 mi
8:00 PM54 °FLight rain. Fog.21 mph94%30.10 "Hg4 mi
7:00 PM55 °FLight rain. Fog.16 mph94%30.09 "Hg6 mi
6:00 PM55 °FLight rain. Fog.17 mph94%30.09 "Hg4 mi
5:00 PM55 °FLight rain. Fog.14 mph94%30.10 "Hg4 mi
4:00 PM55 °FLight rain. Fog.15 mph100%30.10 "Hg4 mi
3:00 PM55 °FLight rain. Fog.14 mph94%30.10 "Hg3 mi
2:00 PM55 °FLight rain. Fog.12 mph100%30.10 "Hg4 mi
1:00 PM55 °FLight rain. Fog.8 mph100%30.11 "Hg3 mi
12:00 PM57 °FLight rain. Fog.8 mph94%30.10 "Hg4 mi
11:00 AM55 °FLight rain. Fog.7 mph100%30.11 "Hg4 mi
10:52 AM55 °FLight rain. Fog.6 mph100%30.11 "Hg4 mi
10:00 AM55 °FLight rain. Fog.8 mph100%30.11 "Hg4 mi
9:00 AM55 °FLight rain. Fog.7 mph100%30.11 "Hg3 mi
8:51 AM55 °FLight rain. Fog.8 mph100%30.11 "Hg3 mi
8:00 AM55 °FSprinkles. Mostly cloudy.9 mph100%30.10 "Hg10 mi
7:00 AM55 °FSprinkles. Overcast.10 mph100%30.10 "Hg15 mi
6:00 AM55 °FLots of rain. Low clouds.12 mph100%30.10 "Hg2 mi
5:45 AM55 °FLots of rain. Low clouds.14 mph100%30.09 "Hg2 mi
5:00 AM57 °FSprinkles. Mostly cloudy.8 mph94%30.09 "Hg15 mi
Weather by CustomWeather, © 2014

See weather overviewHow to use our weather pages